{"data":{"norad_id":64735,"epoch":"2026-05-25T03:13:10.913376Z","epoch_age_seconds":60130,"freshness":"FRESH","line1":"1 64735U 25144M   26145.13415409  .00011849  00000+0  41145-3 0  9996","line2":"2 64735  53.1578 186.1275 0001162  81.9688 278.1445 15.30205822 51360","mean_motion":15.30205822,"eccentricity":0.0001162,"inclination_deg":53.1578,"raan_deg":186.1275,"arg_perigee_deg":81.9688,"mean_anomaly_deg":278.1445,"bstar":0.00041145,"rev_number":5136,"period_min":94.104987662241,"perigee_km":474.40132854135,"apogee_km":475.99404352238,"semimajor_km":6853.3346860319,"source":"CELESTRAK","updated_at":"2026-05-25T13:38:20.546160Z"}}